Lebanon Municipal Airport Lebanon US
ICAO: KLEB
IATA: LEB
Category: Medium
Scheduled Services: Yes

Elevation: 603 ft
TransAlt. 18000 ft.

Airport Communications:
BOSTON APP/DEP:134.7
ASOS:118.65
ATIS:118.65
CTAF:125.95
GND:121.6
BANGOR RDO:122.2
TWR:125.95
UNICOM:122.95

KLEB Zoom In..

Runways:

(A) RW 07 length 5496 ft width 100 ft
---- / hdg 75

(B) RW 18 length 5200 ft width 100 ft
ILS 111.90 / hdg 184

(C) RW 25 length 5496 ft width 100 ft
---- / hdg 255

(D) RW 36 length 5200 ft width 100 ft
---- / hdg 4

Location; KLEB
Day. 27 / Time. 06.53 Zulu
* Altimeter: 30.01
* Temperature: 05° c. 41°f.
* Wind from: 000° Speed 00 kn.
Dewpoint: 04° c.
Visibility: 8 Statute Miles.
Clouds: Broken 100 ft.
Clouds: Overcast 2500 ft.

KLEB 270653Z AUTO 00000KT 8SM BKN001 OVC025 05/04 A3001 RMK AO2 SLP165 T00500039

Going to: --> -->


Wind - Calm.

 
 
jpsmedia worldairports.se 2020   terms of use